Wind_Speed
19 21 20 18 17 16 16 15 14 14 13 13 12 11 9 9 9 8 8 8 8 7 7 6 7 7 7 7 7 7 8 9 9 9 9 10 10 10 9 9 8 8
17 20 21 20 19 17 17 16 16 15 14 13 13 12 11 9 9 8 8 8 8 8 7 7 7 7 6 6 7 7 7 8 8 8 9 10 10 10 9 9 8 8
16 19 21 21 20 18 17 17 17 16 16 15 14 12 12 11 10 9 8 8 8 8 8 7 6 7 6 6 6 6 6 7 7 8 8 9 9 10 10 9 9 9
16 16 19 21 21 20 19 18 18 17 16 16 15 13 13 12 11 10 10 9 9 9 8 8 7 6 6 6 6 6 6 7 8 8 7 8 9 10 10 9 9 9
17 16 17 20 22 22 21 20 19 18 17 16 16 14 13 12 11 11 10 10 10 10 9 9 8 7 7 7 7 7 7 7 7 8 7 8 9 9 10 10 10 10
19 18 17 18 21 22 22 21 20 19 18 17 16 15 14 13 12 12 11 11 11 12 11 10 10 9 8 8 7 7 7 7 7 7 7 8 8 9 10 11 11 10
20 19 18 18 19 21 22 22 21 20 20 18 17 16 15 14 14 13 13 12 12 12 12 12 11 10 10 9 9 8 8 8 8 7 7 7 8 9 10 10 10 10
20 20 20 19 19 20 21 22 22 22 21 20 19 18 16 15 15 15 14 14 14 13 12 12 12 11 11 10 10 10 9 9 8 8 7 7 7 8 9 9 9 9
20 21 22 21 21 20 20 21 22 22 22 21 20 19 18 17 17 16 16 15 16 15 14 13 12 12 12 12 11 11 10 10 10 9 9 8 8 9 9 9 9 8
20 21 22 22 22 22 20 20 21 22 22 22 22 21 20 19 18 18 17 17 16 16 15 14 13 13 13 13 12 12 12 11 11 10 10 9 9 10 10 10 10 10
22 20 21 22 22 23 22 21 21 22 22 22 22 22 22 21 20 19 19 18 17 17 16 14 14 13 13 13 13 13 12 12 12 11 11 11 11 11 11 11 11 11
24 21 20 20 21 22 22 22 22 22 22 22 21 21 22 22 21 20 20 19 17 17 17 16 15 15 15 15 14 14 13 13 13 12 12 12 12 12 13 13 12 12
26 26 24 21 20 21 21 21 22 22 23 22 21 21 21 21 21 20 20 20 18 18 18 17 17 16 16 16 16 16 15 14 14 13 13 13 13 13 14 14 14 14
26 26 25 23 23 22 21 22 23 23 24 24 22 22 22 22 22 21 20 21 20 19 18 18 19 18 18 18 17 18 17 16 15 15 14 14 13 14 14 14 15 15
26 26 25 24 25 25 23 23 23 23 23 25 25 24 23 23 24 24 22 21 20 20 19 20 20 20 19 19 18 18 18 17 16 16 16 16 15 15 15 15 15 15
26 28 26 25 27 28 26 25 25 24 23 24 26 27 25 24 24 25 25 24 22 20 20 20 21 20 19 19 18 18 18 18 18 17 17 17 17 17 17 17 17 17
27 28 27 26 27 29 29 29 29 28 26 24 25 27 27 25 23 23 25 26 25 23 20 20 21 21 19 18 18 18 18 19 19 19 18 18 18 19 19 19 19 18
29 29 28 26 26 29 33 34 32 31 31 29 28 27 27 27 25 23 23 24 26 26 24 21 20 20 20 19 17 17 18 19 20 20 20 20 19 19 19 20 20 20
27 27 27 27 28 31 35 36 32 31 34 35 34 31 29 28 28 26 24 23 24 25 25 25 22 19 18 18 17 15 15 16 19 20 20 21 21 20 20 20 21 21
26 27 28 30 31 32 35 35 33 33 34 34 33 33 32 30 29 28 28 27 26 26 25 26 25 21 18 17 17 16 15 15 16 18 20 21 22 22 22 21 21 22
28 28 30 32 33 33 35 35 35 35 34 32 32 32 30 31 30 28 29 29 28 28 27 27 27 25 22 20 18 17 16 16 16 18 21 23 23 23 23 23 22 23
28 28 29 31 33 34 35 36 36 36 35 34 34 32 31 32 32 30 30 29 29 29 30 29 28 26 25 24 23 21 19 18 19 20 22 24 25 26 25 25 25 25
28 29 30 31 32 33 34 34 35 36 36 37 35 33 32 34 34 33 32 32 32 31 31 31 30 28 27 26 26 25 25 23 21 21 23 25 26 27 28 27 27 26
23 26 28 30 31 32 31 32 33 33 35 37 36 34 32 33 35 35 35 35 34 32 30 30 29 28 28 28 28 28 28 27 25 25 25 26 27 28 29 30 29 28
17 19 22 24 26 29 31 31 31 30 30 32 34 35 35 34 35 36 36 36 35 33 31 31 30 28 28 29 28 28 28 28 28 28 28 27 28 29 30 31 31 31
16 17 18 18 20 23 27 29 31 31 31 30 31 33 36 37 37 37 36 36 36 35 35 34 33 31 29 27 27 28 28 28 29 30 29 29 29 30 32 33 33 32
Wind_Direction
214 211 208 204 201 198 196 194 194 193 192 193 193 194 194 193 193 192 189 187 186 185 183 179 181 187 192 191 188 192 192 191 189 185 188 191 191 194 191 190 190 184
217 215 212 210 208 205 202 200 197 198 198 197 197 198 196 196 199 201 200 199 198 194 191 189 186 191 193 191 192 193 193 197 196 192 194 199 200 200 201 199 197 197
222 218 216 215 214 212 210 207 203 202 201 201 202 200 199 199 200 203 204 206 207 204 201 200 194 195 197 194 195 195 195 198 200 198 199 203 205 205 207 206 203 206
226 222 219 217 217 216 216 214 210 208 205 204 206 205 204 205 205 206 207 209 210 208 207 209 206 203 203 201 202 202 200 201 201 203 207 208 206 209 211 210 209 211
230 228 222 219 219 219 219 217 215 213 210 208 209 210 209 210 210 210 211 212 213 212 209 211 213 212 210 210 210 209 209 209 205 204 210 214 211 211 212 212 214 215
231 231 227 224 222 221 221 221 219 218 216 214 214 214 213 215 217 215 215 217 219 218 214 213 217 218 217 215 214 216 215 215 215 209 211 217 215 212 213 215 216 217
230 232 231 228 227 226 224 223 222 222 222 222 221 220 218 220 224 225 224 225 225 225 220 217 218 218 219 220 218 219 219 220 223 222 221 226 223 218 216 218 219 218
227 231 232 231 231 230 227 225 224 225 226 227 227 227 226 225 229 233 233 233 231 230 226 221 221 221 220 221 223 224 223 224 228 228 229 231 228 226 223 221 223 223
225 228 230 232 233 232 231 228 228 227 228 231 232 232 232 231 232 235 238 239 238 236 232 226 225 228 229 228 227 229 229 229 233 233 233 234 230 230 231 228 228 228
224 227 229 232 234 235 234 232 232 232 230 232 234 236 237 236 236 237 239 241 241 241 238 235 233 233 236 238 236 234 233 231 235 237 236 236 235 233 233 233 235 236
218 224 230 233 234 236 237 237 237 237 235 234 235 237 240 240 239 240 240 241 242 245 244 241 241 241 241 243 242 240 239 237 237 239 239 238 238 238 237 235 237 240
214 217 225 233 237 238 238 238 239 241 240 237 236 237 240 242 241 242 244 245 243 245 247 246 244 246 246 246 246 244 242 244 244 242 242 242 242 241 241 240 240 241
218 215 215 221 230 235 238 240 240 242 245 244 241 239 241 244 245 242 244 248 247 244 246 248 247 248 248 248 250 249 247 247 249 250 249 247 247 247 245 244 244 244
227 224 219 217 220 223 229 237 240 241 244 248 247 243 240 244 249 248 244 244 247 247 246 248 248 248 249 248 248 251 252 252 252 256 258 256 255 254 253 251 249 247
231 232 228 226 225 222 221 228 236 240 242 245 248 248 244 241 244 251 251 246 245 246 246 248 249 247 248 249 249 250 254 257 257 257 260 262 262 260 258 259 258 256
232 231 230 229 230 229 225 223 227 233 238 241 245 248 249 245 240 243 249 252 252 248 245 246 249 250 247 248 251 253 254 257 260 259 258 259 261 262 261 261 262 263
232 230 232 233 232 232 230 227 224 224 229 236 242 248 250 249 246 242 244 249 254 256 252 245 246 252 254 250 249 253 255 256 258 261 260 258 257 259 261 261 262 263
233 230 233 236 235 233 232 230 225 222 224 226 228 238 248 252 251 248 245 246 249 255 261 257 249 248 253 255 250 247 251 255 257 259 260 260 259 258 259 260 261 261
233 234 236 237 235 234 236 235 230 227 229 227 222 222 231 243 250 251 249 248 246 250 259 266 264 254 250 254 253 248 247 251 254 257 259 261 262 262 261 260 260 260
241 239 241 241 239 240 242 244 241 236 236 238 236 230 225 229 237 244 248 250 249 250 254 261 269 269 262 257 255 254 255 254 254 257 261 262 262 262 262 260 259 259
250 244 240 239 240 241 243 246 248 245 242 243 247 250 244 237 235 238 242 245 248 251 253 256 263 269 271 270 266 262 259 255 254 258 263 265 264 263 263 263 262 260
249 247 243 239 240 241 241 243 246 249 249 246 247 252 253 248 243 242 242 243 245 247 251 254 257 261 265 268 271 271 268 261 254 254 259 263 265 266 265 264 264 264
248 248 246 244 246 248 246 246 247 249 250 249 250 253 252 247 245 246 248 248 246 246 248 250 253 255 257 260 264 267 269 267 262 258 258 260 264 266 267 266 265 265
251 252 251 250 252 254 254 253 254 255 255 253 253 253 252 249 247 248 250 250 250 250 251 252 251 251 252 255 258 261 264 265 265 263 261 260 262 264 267 268 268 267
261 260 260 258 256 255 254 256 259 261 261 260 257 253 251 251 251 250 249 250 252 254 256 258 257 253 251 252 252 255 258 261 263 263 262 261 260 261 263 265 267 268
278 274 271 268 262 257 254 254 256 257 257 257 258 255 253 253 254 254 252 250 250 252 254 257 256 254 253 253 252 251 252 254 257 259 260 259 259 260 260 261 262 264
Height
3222 3224 3225 3226 3227 3227 3229 3230 3231 3232 3233 3233 3234 3235 3236 3237 3238 3240 3241 3241 3242 3242 3243 3244 3245 3246 3247 3248 3249 3250 3250 3251 3252 3253 3254 3255 3255 3256 3257 3257 3258 3259
3222 3223 3224 3225 3226 3227 3228 3229 3230 3231 3232 3233 3234 3235 3236 3237 3238 3239 3240 3241 3242 3242 3243 3244 3245 3246 3247 3248 3248 3249 3250 3250 3251 3252 3253 3254 3255 3255 3256 3257 3257 3258
3221 3222 3223 3225 3226 3227 3228 3229 3230 3231 3232 3233 3234 3235 3236 3236 3237 3238 3240 3241 3241 3242 3243 3244 3245 3245 3246 3247 3248 3249 3249 3250 3251 3251 3252 3253 3254 3255 3255 3256 3257 3258
3220 3221 3223 3224 3226 3227 3227 3228 3229 3230 3231 3232 3233 3234 3235 3236 3237 3238 3239 3240 3241 3242 3242 3243 3244 3245 3246 3246 3247 3248 3249 3249 3250 3251 3252 3252 3253 3254 3255 3255 3256 3257
3219 3220 3222 3223 3224 3225 3226 3227 3228 3229 3230 3231 3232 3233 3234 3235 3236 3237 3238 3239 3240 3241 3242 3243 3243 3244 3245 3246 3247 3247 3248 3249 3250 3250 3251 3252 3253 3253 3254 3255 3255 3256
3218 3219 3221 3222 3223 3224 3226 3227 3228 3229 3230 3231 3231 3232 3233 3234 3235 3236 3237 3238 3239 3240 3241 3242 3243 3244 3245 3245 3246 3247 3248 3249 3249 3250 3251 3251 3252 3253 3253 3254 3255 3255
3217 3218 3220 3221 3222 3223 3225 3226 3227 3228 3229 3230 3231 3232 3233 3234 3234 3235 3236 3237 3238 3239 3240 3241 3242 3243 3244 3245 3246 3247 3247 3248 3249 3249 3250 3251 3251 3252 3253 3253 3254 3255
3216 3218 3219 3220 3222 3223 3224 3225 3226 3228 3229 3229 3230 3231 3232 3233 3234 3235 3236 3237 3237 3238 3239 3240 3241 3242 3243 3244 3245 3246 3247 3247 3248 3249 3250 3250 3251 3252 3252 3253 3254 3254
3215 3217 3218 3219 3221 3222 3223 3225 3226 3227 3228 3228 3229 3230 3231 3232 3233 3234 3235 3236 3236 3237 3238 3239 3240 3242 3242 3243 3244 3245 3246 3247 3247 3248 3249 3250 3250 3251 3252 3253 3253 3254
3215 3216 3217 3219 3220 3221 3223 3224 3225 3226 3227 3228 3228 3229 3230 3231 3232 3233 3234 3234 3235 3236 3237 3238 3239 3241 3242 3242 3243 3244 3245 3246 3247 3247 3248 3249 3250 3251 3251 3252 3253 3253
3214 3216 3217 3218 3220 3221 3222 3224 3224 3225 3226 3227 3227 3228 3229 3230 3230 3231 3232 3233 3234 3235 3236 3238 3239 3239 3240 3241 3242 3243 3244 3245 3246 3246 3247 3248 3249 3250 3250 3251 3252 3252
3213 3214 3217 3219 3220 3221 3222 3223 3224 3225 3225 3226 3227 3227 3228 3228 3229 3230 3231 3232 3233 3235 3235 3236 3238 3238 3239 3240 3241 3242 3243 3244 3245 3245 3246 3247 3248 3249 3250 3250 3251 3252
3211 3211 3214 3217 3219 3221 3222 3223 3224 3224 3225 3225 3226 3227 3227 3227 3227 3229 3230 3230 3232 3233 3234 3235 3236 3237 3238 3239 3240 3241 3242 3243 3243 3244 3245 3246 3247 3248 3249 3249 3250 3251
3208 3210 3214 3215 3216 3218 3221 3222 3223 3223 3224 3224 3225 3226 3226 3227 3227 3227 3228 3229 3230 3231 3233 3233 3234 3235 3236 3237 3238 3239 3240 3241 3242 3243 3244 3245 3246 3247 3247 3248 3249 3250
3207 3210 3213 3215 3215 3215 3217 3219 3221 3222 3223 3224 3224 3224 3225 3226 3226 3226 3226 3227 3228 3229 3231 3231 3232 3233 3234 3235 3237 3238 3239 3240 3241 3242 3243 3243 3244 3245 3246 3247 3248 3248
3206 3208 3209 3212 3213 3213 3214 3215 3218 3220 3221 3222 3223 3223 3223 3224 3225 3225 3225 3225 3226 3227 3229 3230 3230 3231 3232 3234 3235 3236 3237 3238 3239 3240 3241 3242 3242 3243 3244 3245 3246 3247
3204 3206 3207 3208 3209 3211 3212 3212 3213 3215 3217 3219 3221 3222 3222 3222 3223 3224 3225 3224 3224 3224 3225 3227 3228 3229 3230 3232 3233 3234 3235 3236 3237 3238 3239 3239 3240 3241 3242 3243 3244 3245
3202 3203 3204 3204 3206 3207 3207 3206 3207 3209 3212 3214 3216 3219 3222 3222 3221 3222 3223 3224 3224 3223 3223 3224 3226 3227 3228 3228 3230 3232 3233 3234 3234 3235 3236 3237 3238 3239 3240 3241 3242 3243
3200 3201 3201 3201 3202 3202 3201 3201 3203 3205 3207 3209 3210 3212 3216 3219 3221 3221 3221 3222 3222 3222 3222 3222 3223 3225 3226 3226 3227 3229 3230 3231 3232 3232 3233 3234 3235 3236 3237 3239 3240 3241
3195 3196 3197 3197 3198 3198 3198 3199 3202 3204 3206 3210 3211 3211 3211 3214 3216 3218 3219 3220 3220 3221 3221 3221 3221 3222 3223 3224 3225 3226 3228 3229 3229 3230 3230 3231 3232 3233 3234 3235 3237 3238
3190 3192 3193 3193 3194 3195 3195 3197 3200 3203 3206 3209 3212 3214 3215 3215 3214 3215 3215 3216 3217 3218 3219 3219 3220 3220 3221 3221 3223 3224 3225 3226 3227 3227 3228 3228 3229 3230 3231 3232 3233 3234
3187 3189 3190 3190 3191 3193 3194 3196 3198 3201 3204 3206 3207 3210 3213 3213 3213 3213 3213 3213 3213 3214 3215 3216 3217 3219 3219 3219 3220 3221 3223 3224 3225 3225 3226 3226 3226 3227 3228 3229 3230 3231
3184 3185 3187 3188 3190 3191 3193 3195 3197 3199 3201 3203 3204 3205 3206 3208 3210 3211 3211 3211 3210 3210 3211 3212 3214 3216 3217 3218 3218 3219 3220 3221 3222 3223 3223 3223 3224 3224 3225 3226 3227 3228
3181 3182 3183 3185 3188 3189 3191 3192 3194 3196 3197 3199 3200 3201 3203 3204 3206 3206 3207 3208 3208 3208 3208 3209 3210 3212 3214 3214 3216 3217 3217 3218 3219 3220 3220 3221 3221 3222 3222 3222 3223 3224
3179 3179 3180 3182 3184 3186 3187 3188 3190 3192 3194 3195 3195 3197 3198 3200 3201 3202 3203 3204 3205 3206 3206 3206 3207 3208 3209 3210 3212 3213 3213 3214 3215 3216 3216 3217 3218 3218 3218 3219 3219 3220
3176 3177 3177 3179 3181 3182 3183 3185 3187 3189 3190 3191 3192 3192 3194 3196 3197 3198 3199 3200 3200 3201 3202 3202 3202 3202 3204 3206 3208 3208 3208 3209 3210 3211 3212 3213 3214 3214 3214 3214 3214 3215